Regional Weather Roundup
Issued by NWS Newport/Morehead, NC

Current Version | Previous Version | Graphics & Text | Print | Product List | Glossary Off
Versions: 1 2 3 4 5 6 7 8 9 10 11 12 13 14 15 16 17 18 19 20 21 22 23 24 25 26 27 28 29 30 31 32 33 34 35 36 37 38 39 40 41 42 43 44 45 46 47 48 49 50

000
ASUS42 KMHX 251625
RWRMHX
WEATHER ROUNDUP FOR EASTERN NORTH CAROLINA
NATIONAL WEATHER SERVICE NEWPORT/MOREHEAD CITY NC
1200 PM EDT SAT MAR 25 2017

NOTE: "FAIR" INDICATES FEW OR NO CLOUDS BELOW 12,000 FEET
WITH NO SIGNIFICANT WEATHER AND/OR OBSTRUCTIONS TO VISIBILITY

NCZ015>017-031-032-045>047-102-103-251700-
NORTH COAST

CITY           SKY/WX    TMP DP  RH WIND       PRES   REMARKS
EDENTON        MOSUNNY   71  52  50 SW12G18   30.32F
ELIZABETH CITY MOSUNNY   72  53  51 SW14G23   30.30F
KITTY HAWK     NOT AVBL
MANTEO         PTSUNNY   68  50  52 W10G18    30.32F

$$

NCZ045>047-081-094-103-104-251700-
CENTRAL COAST

CITY           SKY/WX    TMP DP  RH WIND       PRES   REMARKS
FRISCO         CLOUDY    71  51  49 SW13      30.35F

$$

NCZ095-097-098-100-101-251700-
SOUTHERN COAST

CITY           SKY/WX    TMP DP  RH WIND       PRES   REMARKS
BEAUFORT       SUNNY     71  55  56 SW14      30.36F
CEDAR ISLAND   NOT AVBL
JACKSONVILLE   CLOUDY    74  53  48 S12       30.34F
PINEY ISLAND   SUNNY    N/A N/A N/A SW12      30.34F
WILMINGTON     CLOUDY    71  51  49 SW14      30.36F


$$

NCZ011>013-027>030-043-044-078>080-089-090>093-098-251700-
COASTAL PLAIN

CITY           SKY/WX    TMP DP  RH WIND       PRES   REMARKS
AHOSKIE          N/A     71  52  52 CALM      30.30F
CLINTON        SUNNY     72  54  53 S8        30.33F
ELIZABETHTOWN  MOSUNNY   71  50  46 SW10G16   30.34F
GOLDSBORO      MOSUNNY   73  51  46 SW16      30.31F
GREENVILLE     MOSUNNY   73  52  46 W14G20    30.32F
HAVELOCK       MOSUNNY   74  51  44 SW13G25   30.35R
KENANSVILLE    PTSUNNY   73  50  43 SW14      30.33F
KINSTON        MOSUNNY   73  50  43 SW15G21   30.33F
NEW BERN       MOSUNNY   73  52  47 W8        30.34F
RICHLANDS      PTSUNNY   71  54  54 SW14      30.34F
ROCKY MOUNT    MOSUNNY   72  54  53 SW10G20   30.31F
WASHINGTON     MOSUNNY   72  51  48 SW14G21   30.33F
WHITEVILLE     CLOUDY    72  50  46 SW10      30.34F

$$

AMZ130-135-150-152-154-156-158-170-250-252-270-ANZ085-086-088-633-658-670-251700-
MARINE OBSERVATIONS

STATION/POSITION TIME  TEMP    WIND        PRES    WAVE   SWELL
                       AIR SEA DIR/SP/G            HT/PER HT/PER
                 (UTC) (F)     (DEG/KT/KT) (MB)    (FT/S) (FT/S)
CHESAPEAKE LIGHT NOT AVBL
64 E VA BEACH    1550   53 49  220/ 12/ 14 1026.3    3/ 5   2/ 5
DUCK             1600   65 47  250/  9/ 11 1025.9
2 E DUCK         1600      49                N/A     1/11
OREGON INLET     1600   59 55  190/ 13/ 15 1026.8
13E OREGON INLT  1548      49                N/A     2/ 5   2/ 8
HATTERAS CG      1600   69 56  220/  7/ 12 1027.3
DIAMOND BUOY     1550   69 76  270/ 14/ 17 1028.0    3/ 6   2/10
CAPE LOOKOUT     1600   71     210/ 11/ 13 1027.7
BEAUFORT LAB     1600   67 52  200/  8/ 12 1027.0
30 SE NEW RVR IN 1608   67     200/  8/ 12 1028.4
30 SE NEW RVR IN 1613      65                N/A     3/ 8   2/11
27 SE WRIGHTSVLE 1608   66 62  220/  4/  6 1027.5
5 SE WRIGHTSVLE  1608   62 57  160/  6/  8 1028.0
225 S CAPE HAT   1550   66 73   80/ 14/ 17 1029.3    5/ 8   3/ 8
41 SE CHARLESTON 1550   70 70  120/ 14/ 16 1027.2    4/ 8   3/ 8

$$



USA.gov is the U.S. government's official web portal to all federal, state and local government web resources and services.